Location: Bishausen
(51.6334°N, 9.9631°E)
Time: 16:00:27
(UTC+00:00)

Okean 2 - Pass Details

Date: 23 May 2024
Orbit: 541 x 552 km, 82.5° (Epoch: 23 June)

Event Time Altitude Azimuth Distance (km) Brightness Sun altitude
Exits shadow 00:51:10 27° 191° (S) 1,068 4.2 -14.8°
Maximum altitude 00:53:17 88° 276° (W) 550 3.2 -14.7°
Drops below altitude 10° 00:57:17 10° 10° (N) 1,819 7.3 -14.5°
Sets 00:59:28 0° 11° (N) 2,717 8.5 -14.3°
